TimeEDT,TemperatureF,Dew PointF,Humidity,Sea Level PressureIn,VisibilityMPH,Wind Direction,Wind SpeedMPH,Gust SpeedMPH,PrecipitationIn,Events,Conditions,WindDirDegrees,DateUTC
12:52 AM,64.9,62.1,90,30.05,8.0,Calm,Calm,-,N/A,,Overcast,0,2013-07-10 04:52:00
1:52 AM,64.9,62.1,90,30.04,9.0,Calm,Calm,-,N/A,,Overcast,0,2013-07-10 05:52:00
2:52 AM,64.0,61.0,90,30.02,8.0,WNW,3.5,-,N/A,,Overcast,300,2013-07-10 06:52:00
3:52 AM,63.0,60.1,90,30.00,8.0,Calm,Calm,-,N/A,,Mostly Cloudy,0,2013-07-10 07:52:00
4:52 AM,62.1,59.0,90,30.00,4.0,Calm,Calm,-,N/A,,Partly Cloudy,0,2013-07-10 08:52:00
5:01 AM,62.6,59.0,88,30.01,4.0,Calm,Calm,-,N/A,,Mostly Cloudy,0,2013-07-10 09:01:00
5:52 AM,63.0,60.1,90,30.00,5.0,Calm,Calm,-,N/A,,Mostly Cloudy,0,2013-07-10 09:52:00
6:52 AM,66.9,63.0,87,29.99,9.0,Calm,Calm,-,N/A,,Scattered Clouds,0,2013-07-10 10:52:00
7:52 AM,72.0,64.0,76,29.96,10.0,NW,3.5,-,N/A,,Clear,320,2013-07-10 11:52:00
8:52 AM,75.0,64.0,69,29.94,10.0,Variable,6.9,-,N/A,,Scattered Clouds,0,2013-07-10 12:52:00
9:52 AM,75.0,63.0,66,29.93,10.0,South,8.1,20.7,N/A,,Overcast,170,2013-07-10 13:52:00
10:52 AM,75.0,63.0,66,29.92,10.0,SSE,11.5,-,N/A,,Overcast,160,2013-07-10 14:52:00
11:52 AM,73.0,64.9,76,29.92,10.0,SW,4.6,-,0.00,Rain,Light Rain,230,2013-07-10 15:52:00
12:52 PM,79.0,64.9,62,29.88,10.0,SSE,8.1,-,0.00,,Mostly Cloudy,150,2013-07-10 16:52:00
1:28 PM,78.8,64.4,61,29.89,10.0,South,5.8,-,N/A,,Overcast,190,2013-07-10 17:28:00
1:52 PM,78.1,64.0,62,29.86,10.0,Variable,5.8,-,N/A,,Overcast,0,2013-07-10 17:52:00
2:18 PM,77.0,64.4,65,29.87,10.0,Variable,3.5,16.1,N/A,,Overcast,0,2013-07-10 18:18:00
2:47 PM,78.8,66.2,65,29.85,10.0,SSE,8.1,-,N/A,,Scattered Clouds,160,2013-07-10 18:47:00
2:52 PM,78.1,64.9,64,29.84,10.0,South,6.9,-,N/A,,Scattered Clouds,170,2013-07-10 18:52:00
3:52 PM,75.9,66.0,71,29.83,9.0,South,3.5,-,N/A,,Mostly Cloudy,170,2013-07-10 19:52:00
4:33 PM,73.4,68.0,83,29.83,1.8,SSW,3.5,-,0.05,Rain,Rain,200,2013-07-10 20:33:00
4:45 PM,71.6,66.2,83,29.82,2.5,South,3.5,-,0.07,Rain,Light Rain,180,2013-07-10 20:45:00
4:52 PM,71.1,66.9,87,29.82,2.0,Calm,Calm,-,0.09,Rain,Rain,0,2013-07-10 20:52:00
4:59 PM,71.6,66.2,83,29.83,1.5,WSW,3.5,-,0.03,Rain,Rain,240,2013-07-10 20:59:00
5:29 PM,69.8,66.2,88,29.80,2.0,ESE,4.6,-,0.11,Rain,Light Rain,110,2013-07-10 21:29:00
5:52 PM,72.0,66.0,81,29.79,2.5,SSE,4.6,-,0.18,Rain,Rain,160,2013-07-10 21:52:00
5:55 PM,71.6,66.2,83,29.80,3.0,SSE,4.6,-,0.01,Rain-Thunderstorm,Light Rain,150,2013-07-10 21:55:00
6:14 PM,71.6,66.2,83,29.79,5.0,Calm,Calm,-,0.02,Rain,Light Rain,0,2013-07-10 22:14:00
6:52 PM,71.1,66.9,87,29.80,8.0,Calm,Calm,-,0.02,,Overcast,0,2013-07-10 22:52:00
7:52 PM,71.1,68.0,90,29.78,8.0,Calm,Calm,-,0.00,,Scattered Clouds,0,2013-07-10 23:52:00
8:52 PM,70.0,66.9,90,29.79,7.0,Calm,Calm,-,N/A,,Partly Cloudy,0,2013-07-11 00:52:00
9:22 PM,68.0,66.2,94,29.80,1.8,Calm,Calm,-,N/A,,Partly Cloudy,0,2013-07-11 01:22:00
9:36 PM,68.0,64.4,88,29.81,0.8,Calm,Calm,-,N/A,,Scattered Clouds,0,2013-07-11 01:36:00
9:52 PM,68.0,66.0,93,29.79,0.2,Calm,Calm,-,N/A,Fog,Fog,0,2013-07-11 01:52:00
10:10 PM,66.2,64.4,94,29.80,1.2,Calm,Calm,-,N/A,,Mostly Cloudy,0,2013-07-11 02:10:00
10:17 PM,66.2,64.4,94,29.80,0.8,Calm,Calm,-,N/A,,Mostly Cloudy,0,2013-07-11 02:17:00
10:52 PM,66.9,64.9,93,29.79,1.0,Calm,Calm,-,N/A,,Overcast,0,2013-07-11 02:52:00
11:03 PM,68.0,66.2,94,29.80,1.5,Calm,Calm,-,N/A,,Overcast,0,2013-07-11 03:03:00
11:06 PM,68.0,66.2,94,29.80,3.0,Calm,Calm,-,N/A,,Overcast,0,2013-07-11 03:06:00
11:52 PM,68.0,64.9,90,29.78,5.0,Calm,Calm,-,N/A,,Overcast,0,2013-07-11 03:52:00